Woodinville, Washington, United States (98072)
Lat: 47.75N, Lon: 122.16W
Wx Zone: WAZ505
Local Info
Past Weather Observations for Friday, April 24, 2015

NOTE: This archive is for the closest National Weather Service station to Woodinville. Information may differ from the station used for current weather conditions.

Click here for Long-term Archive

Time Weather Temperature Dewpoint Humidity Pressure Winds Precip Visibility
23:53
Overcast
Light Rain
43°F / 6°C 39°F / 4°C 87% 29.92 in
(1013 mb)
SSE 5.8 mph
(SSE 9 kph)
0.01 in
(0.25 mm)
9SM
22:53
Overcast
Light Rain
43°F / 6°C 39°F / 4°C 87% 29.89 in
(1012 mb)
ESE 4.6 mph
(ESE 7 kph)
0.00 in
(0.00 mm)
10SM
22:19
Overcast
43°F / 6°C 39°F / 4°C 87% 29.89 in
(1012 mb)
NE 4.6 mph
(NE 7 kph)
0.00 in
(0.00 mm)
10SM
21:53
Overcast
Light Rain
45°F / 7°C 39°F / 4°C 81% 29.89 in
(1012 mb)
NE 5.8 mph
(NE 9 kph)
0.07 in
(1.78 mm)
4SM
21:11
Overcast
Light Rain
45°F / 7°C 39°F / 4°C 81% 29.89 in
(1012 mb)
E 4.6 mph
(E 7 kph)
0.01 in
(0.25 mm)
7SM
20:53
Overcast
Light Rain
45°F / 7°C 39°F / 4°C 81% 29.86 in
(1011 mb)
N 4.6 mph
(N 7 kph)
0.02 in
(0.51 mm)
8SM
20:46
Overcast
Light Rain
46°F / 8°C 37°F / 3°C 71% 29.86 in
(1011 mb)
Variable 4.6 mph
(Variable 7 kph)
0.01 in
(0.25 mm)
6SM
20:13
Mostly Cloudy
46°F / 8°C 41°F / 5°C 82% 29.86 in
(1011 mb)
SW 9.2 mph
(SW 15 kph)
0.00 in
(0.00 mm)
10SM
19:53
Mostly Cloudy
48°F / 9°C 39°F / 4°C 71% 29.83 in
(1010 mb)
S 9.2 mph
(S 15 kph)
- 10SM
18:53
Partly Cloudy
50°F / 10°C 39°F / 4°C 67% 29.83 in
(1010 mb)
S 11.5 mph
(S 19 kph)
- 10SM
17:53
Overcast
50°F / 10°C 37°F / 3°C 62% 29.8 in
(1009 mb)
SSE 10.4 mph
(SSE 17 kph)
- 10SM
16:53
Mostly Cloudy
52°F / 11°C 37°F / 3°C 58% 29.8 in
(1009 mb)
SSE 16.1 mph
(SSE 26 kph)
- 10SM
15:53
Mostly Cloudy
52°F / 11°C 37°F / 3°C 58% 29.8 in
(1009 mb)
S 16.1 mph
(S 26 kph)
- 10SM
14:53
Mostly Cloudy
52°F / 11°C 37°F / 3°C 58% 29.8 in
(1009 mb)
SSE 19.6 mph
(SSE 32 kph)
- 10SM
13:53
Partly Cloudy
52°F / 11°C 36°F / 2°C 54% 29.8 in
(1009 mb)
S 13.8 mph
(S 22 kph)
- 10SM
12:53
Mostly Cloudy
52°F / 11°C 37°F / 3°C 58% 29.8 in
(1009 mb)
S 15 mph
(S 24 kph)
- 10SM
11:53
Partly Cloudy
54°F / 12°C 37°F / 3°C 54% 29.77 in
(1008 mb)
S 24.2 mph
(S 39 kph)
- 10SM
10:53
Partly Cloudy
50°F / 10°C 37°F / 3°C 62% 29.8 in
(1009 mb)
S 23 mph
(S 37 kph)
- 10SM
09:53
Partly Cloudy
50°F / 10°C 37°F / 3°C 62% 29.77 in
(1008 mb)
S 17.3 mph
(S 28 kph)
- 10SM
09:10
Partly Cloudy
48°F / 9°C 37°F / 3°C 66% 29.77 in
(1008 mb)
S 23 mph
(S 37 kph)
- 10SM
08:53
Mostly Cloudy
48°F / 9°C 37°F / 3°C 66% 29.77 in
(1008 mb)
S 20.7 mph
(S 33 kph)
- 10SM
07:53
Partly Cloudy
45°F / 7°C 37°F / 3°C 76% 29.77 in
(1008 mb)
S 19.6 mph
(S 32 kph)
- 10SM
06:53
Overcast
45°F / 7°C 37°F / 3°C 76% 29.77 in
(1008 mb)
S 16.1 mph
(S 26 kph)
- 10SM
05:53
Overcast
43°F / 6°C 39°F / 4°C 87% 29.77 in
(1008 mb)
S 13.8 mph
(S 22 kph)
- 10SM
05:39
Mostly Cloudy
43°F / 6°C 39°F / 4°C 87% 29.77 in
(1008 mb)
S 13.8 mph
(S 22 kph)
- 10SM
04:53
Partly Cloudy
43°F / 6°C 37°F / 3°C 81% 29.74 in
(1007 mb)
S 16.1 mph
(S 26 kph)
- 10SM
04:44
Partly Cloudy
43°F / 6°C 37°F / 3°C 81% 29.74 in
(1007 mb)
S 16.1 mph
(S 26 kph)
- 10SM
04:08
Mostly Cloudy
43°F / 6°C 39°F / 4°C 87% 29.74 in
(1007 mb)
S 13.8 mph
(S 22 kph)
- 10SM
03:53
Overcast
43°F / 6°C 39°F / 4°C 87% 29.74 in
(1007 mb)
S 13.8 mph
(S 22 kph)
- 10SM
02:53
Overcast
43°F / 6°C 37°F / 3°C 81% 29.74 in
(1007 mb)
S 16.1 mph
(S 26 kph)
0.00 in
(0.00 mm)
10SM
01:53
Overcast
Light Rain
45°F / 7°C 39°F / 4°C 81% 29.74 in
(1007 mb)
S 16.1 mph
(S 26 kph)
0.01 in
(0.25 mm)
9SM
00:57
Overcast
45°F / 7°C 37°F / 3°C 76% 29.77 in
(1008 mb)
S 15 mph
(S 24 kph)
- 10SM
00:53
Overcast
45°F / 7°C 37°F / 3°C 76% 29.77 in
(1008 mb)
S 12.7 mph
(S 20 kph)
- 10SM
Time Weather Temperature Dewpoint Humidity Pressure Winds Precip Visibility


Weather for websites

WeatherForYou.com, LLC is not responsible for any damages or problems caused by this service. Current weather conditions are obtained from the closest station including government and personal stations which may have varying degrees of accuracy. Weather forecasts are derived from the NOAA NDFD. Like all things, this site belongs to Jesus Christ... He just trusts us to maintain it. If you have any questions or comments email webmaster@weatherforyou.com

Copyright © 2015, WeatherForYou.com LLC. All rights reserved.